Punta Gorda, FL

1:07 AM EST on December 10, 2019 (GMT -0500)
Charlotte County

Weather History for KPGD - September, 2019

Change the Weather History Date:

Friday, September 6, 2019

  Actual Average Record
Temperature  
Mean Temperature 86 °F -  
Max Temperature 91 °F 88 °F 95 °F (2013)
Min Temperature 81 °F 72 °F 71 °F (1997)
Cooling Degree Days 21    
Growing Degree Days 36 (Base 50)    
Moisture  
Dew Point 79 °F    
Average Humidity 80    
Maximum Humidity 94    
Minimum Humidity 63    
Precipitation  
Precipitation 0.00 in - - ()
Sea Level Pressure  
Sea Level Pressure 29.95 in    
Wind  
Wind Speed 9 mph (West)    
Max Wind Speed 18 mph    
Max Gust Speed 23 mph    
Visibility 10 miles    
Events      
Averages and records for this station are not official NWS values.
T = Trace of Precipitation, MM = Missing Value Source: NWS Daily Summary

Daily Weather History Graph

Daily Weather History Graph

Search for Another Location

Airport or City:

Astronomy

Sep. 06, 2019 Rise Set
Actual Time 7:09 AM EDT 7:42 PM EDT
Civil Twilight 6:46 AM EDT 8:06 PM EDT
Nautical Twilight 6:18 AM EDT 8:33 PM EDT
Astronomical Twilight 5:50 AM EDT 9:01 PM EDT
Moon 2:35 PM EDT (9/6) 12:37 AM EDT (9/6)
Length of Visible Light 13h 20m
Length of Day
12h 33m
First Quarter, 55% of the Moon is Illuminated
Sep 6
First Quarter
Sep 14
Full
Sep 21
Last Quarter
Sep 28
New
Oct 5
First Quarter

Hourly Weather History & Observations

Time (EDT) Temp. Heat Index Dew Point Humidity Pressure Visibility Wind Dir Wind Speed Gust Speed Precip Events Conditions
12:53 AM 82.9 °F 95.9 °F 81.0 °F 94% 29.97 in 10.0 mi West 6.9 mph - N/A   Clear
1:53 AM 82.9 °F 95.9 °F 81.0 °F 94% 29.96 in 10.0 mi West 6.9 mph - N/A   Clear
2:53 AM 82.0 °F 92.8 °F 80.1 °F 94% 29.95 in 10.0 mi West 6.9 mph - N/A   Clear
3:53 AM 82.0 °F 91.6 °F 79.0 °F 90% 29.94 in 10.0 mi West 6.9 mph - N/A   Clear
4:53 AM 81.0 °F 89.2 °F 79.0 °F 94% 29.94 in 10.0 mi West 4.6 mph - N/A   Clear
5:53 AM 82.0 °F 91.6 °F 79.0 °F 90% 29.94 in 10.0 mi West 5.8 mph - N/A   Clear
6:53 AM 81.0 °F 89.2 °F 79.0 °F 94% 29.95 in 10.0 mi West 5.8 mph - N/A   Clear
7:53 AM 82.0 °F 91.0 °F 78.1 °F 88% 29.96 in 10.0 mi West 6.9 mph - N/A   Partly Cloudy
8:53 AM 84.9 °F 97.5 °F 79.0 °F 82% 29.97 in 10.0 mi West 5.8 mph - N/A   Clear
9:53 AM 88.0 °F 101.3 °F 78.1 °F 72% 29.98 in 10.0 mi West 12.7 mph 19.6 mph N/A   Scattered Clouds
10:53 AM 89.1 °F 103.2 °F 78.1 °F 70% 29.98 in 10.0 mi West 12.7 mph - N/A   Scattered Clouds
11:53 AM 90.0 °F 104.5 °F 78.1 °F 68% 29.97 in 10.0 mi West 13.8 mph - N/A   Mostly Cloudy
12:12 PM 89.1 °F 103.2 °F 78.1 °F 70% 29.97 in 10.0 mi West 13.8 mph - N/A   Mostly Cloudy
12:25 PM 91.0 °F 106.2 °F 78.1 °F 66% 29.96 in 10.0 mi West 15.0 mph - N/A   Scattered Clouds
12:53 PM 91.0 °F 106.2 °F 78.1 °F 66% 29.96 in 10.0 mi West 13.8 mph - N/A   Mostly Cloudy
1:53 PM 91.0 °F 104.2 °F 77.0 °F 63% 29.95 in 10.0 mi West 18.4 mph 23.0 mph N/A   Scattered Clouds
2:53 PM 91.0 °F 104.2 °F 77.0 °F 63% 29.93 in 10.0 mi West 15.0 mph 20.7 mph N/A   Partly Cloudy
3:53 PM 91.0 °F 104.2 °F 77.0 °F 63% 29.92 in 10.0 mi West 15.0 mph - N/A   Clear
4:53 PM 90.0 °F 102.5 °F 77.0 °F 65% 29.91 in 10.0 mi West 13.8 mph - N/A   Clear
5:53 PM 89.1 °F 103.2 °F 78.1 °F 70% 29.91 in 10.0 mi West 13.8 mph - N/A   Scattered Clouds
6:53 PM 87.1 °F 101.5 °F 79.0 °F 77% 29.92 in 10.0 mi West 10.4 mph - N/A   Clear
7:53 PM 86.0 °F 102.5 °F 81.0 °F 85% 29.92 in 10.0 mi WSW 8.1 mph - N/A   Partly Cloudy
8:53 PM 84.9 °F 100.3 °F 81.0 °F 88% 29.93 in 10.0 mi WSW 8.1 mph - N/A   Clear
9:53 PM 84.0 °F 99.9 °F 82.0 °F 94% 29.94 in 10.0 mi West 6.9 mph - N/A   Clear
10:53 PM 84.0 °F 98.1 °F 81.0 °F 90% 29.96 in 10.0 mi WSW 5.8 mph - N/A   Clear
11:34 PM 82.9 °F 93.8 °F 79.0 °F 88% 29.95 in 10.0 mi North 4.6 mph - N/A   Mostly Cloudy
11:53 PM 82.9 °F 93.8 °F 79.0 °F 88% 29.95 in 10.0 mi Calm Calm - N/A   Mostly Cloudy